Regional Weather Roundup
Issued by NWS

Home | Current Version | Previous Version | Text Only | Print | Product List | Glossary On
Versions: 1 2 3 4 5 6 7 8 9 10 11 12 13 14 15 16 17 18 19 20 21 22 23 24 25 26 27
000
ASUS45 KBOI 250310
RWRID

IDAHO REGIONAL WEATHER ROUNDUP
NATIONAL WEATHER SERVICE BOISE ID
900 PM MDT TUE MAY 24 2016

NOTE: "FAIR" INDICATES FEW OR NO CLOUDS BELOW 12000 FEET
WITH NO SIGNIFICANT WEATHER AND/OR OBSTRUCTIONS TO VISIBILITY

IDZ012-014-250400-
SOUTHWEST IDAHO


CITY           SKY/WX    TMP DP  RH WIND       PRES   REMARKS
BOISE          CLOUDY    67  33  28 NW15      29.83R
CALDWELL       MOCLDY    66  38  35 NW8       29.84R
MOUNTAIN HOME  PTCLDY    66  38  35 NW14      29.83R
$$

IDZ016-017-250400-
SOUTHCENTRAL IDAHO


CITY           SKY/WX    TMP DP  RH WIND       PRES   REMARKS
BURLEY         CLOUDY    59  40  49 W6        29.85R
JEROME         MOCLDY    58  34  40 W10       29.85R
TWIN FALLS     CLOUDY    60  35  39 W9        29.86R
$$

IDZ019>023-250400-
SOUTHEAST IDAHO


CITY           SKY/WX    TMP DP  RH WIND       PRES   REMARKS
IDAHO FALLS    CLOUDY    51  40  65 N9        29.90R
POCATELLO      CLOUDY    51  42  71 S17G25    29.89R
REXBURG        LGT RAIN  48  43  82 E3        29.90R
$$

IDZ006-010-011-018-031-032-250400-
CENTRAL IDAHO MOUNTAINS


CITY           SKY/WX    TMP DP  RH WIND       PRES   REMARKS
MCCALL         MOCLDY    51  36  56 NW6       29.90R
HAILEY         PTCLDY    50  39  66 W5        29.89S
STANLEY          N/A     48  31  51 CALM      29.93R
SALMON         CLOUDY    54  37  54 SW7       29.87R
CHALLIS        LGT RAIN  49  43  80 SW5       29.91R
$$

IDZ002-004-006-007-026-250400-
NORTHERN IDAHO


CITY           SKY/WX    TMP DP  RH WIND       PRES   REMARKS
LEWISTON       CLEAR     65  46  50 E6        29.89S
LOWELL           N/A     54  51  90 CALM      29.92R
COEUR D`ALENE  CLEAR     59  46  63 E7        29.88R
MULLAN PASS    CLEAR     40  39  97 NW3       29.96S
$$




USA.gov is the U.S. government's official web portal to all federal, state and local government web resources and services.